WX6HNX-4 Weather Reports


Display with metric or nautical units.
time (UTC)temp
F
wind
direction
speed
MPH
gust
MPH
rain 1hr
in
rain 24hr
in
rain mn
in
humidity
%
barometer
mb
20260506023913 59 56 3.0 5.0 0.00 0.12 0.00 69 1006.4
20260506020114 59 60 3.0 5.0 0.00 0.12 0.00 69 1006.3
20260506014614 59 49 3.0 5.0 0.00 0.12 0.00 70 1006.2
20260506011330 59 37 5.0 8.0 0.00 0.12 0.00 68 1006.1
20260506005329 59 41 4.0 6.0 0.00 0.12 0.00 69 1006.1
20260506004039 59 30 4.0 8.0 0.00 0.12 0.00 71 1006.1
20260505225957 60 20 7.0 11.0 0.00 0.12 0.00 74 1005.9
20260505223500 61 0 0.0 6.0 0.00 0.12 0.00 72 1006.2
20260505221959 59 0 0.0 5.0 0.00 0.12 0.00 75 1006.5
20260505221459 59 129 2.0 5.0 0.00 0.12 0.00 76 1006.5
20260505213916 56 40 3.0 5.0 0.00 0.12 0.00 86 1006.9
20260505213416 55 39 2.0 5.0 0.00 0.12 0.00 86 1007.1
20260505211514 55 19 3.0 7.0 0.00 0.12 0.00 87 1007.3
20260505211014 55 11 3.0 7.0 0.00 0.12 0.00 87 1007.3
20260505210514 56 29 3.0 6.0 0.00 0.12 0.00 87 1007.3
20260505205014 55 55 3.0 8.0 0.00 0.12 0.00 86 1007.3
20260505204514 55 47 4.0 6.0 0.00 0.12 0.00 85 1007.3
20260505204014 56 16 3.0 5.0 0.00 0.12 0.00 83 1007.3
20260505201514 55 233 2.0 4.0 0.00 0.12 0.00 83 1007.2
20260505200014 55 222 4.0 8.0 0.00 0.12 0.00 85 1007.3
20260505193714 54 236 5.0 8.0 0.00 0.12 0.00 88 1007.5
20260505193214 54 218 5.0 8.0 0.00 0.12 0.00 88 1007.5
20260505192714 54 219 6.0 10.0 0.00 0.12 0.00 88 1007.4
20260505191214 53 230 5.0 11.0 0.00 0.12 0.00 90 1007.4
20260505190715 53 232 5.0 11.0 0.00 0.12 0.00 91 1007.4
20260505184714 53 232 5.0 10.0 0.01 0.12 0.12 92 1007.5
20260505183714 52 234 5.0 8.0 0.02 0.12 0.12 92 1007.4
20260505182551 52 228 6.0 8.0 0.02 0.12 0.12 93 1007.4
20260505181052 51 226 7.0 12.0 0.03 0.12 0.12 92 1007.4
20260505173051 51 233 7.0 12.0 0.01 0.10 0.10 92 1006.9
20260505172051 51 236 8.0 11.0 0.01 0.10 0.10 92 1006.9
20260505171551 51 256 7.0 13.0 0.00 0.09 0.09 92 1006.9
20260505170355 51 241 10.0 13.0 0.00 0.09 0.09 91 1006.8
20260505165355 51 229 6.0 11.0 0.00 0.09 0.09 91 1006.7
20260505164354 51 233 7.0 12.0 0.00 0.09 0.09 91 1006.6
20260505163355 51 223 7.0 14.0 0.00 0.09 0.09 91 1006.4
20260505161355 51 226 9.0 17.0 0.00 0.09 0.09 88 1006.2
20260505151904 52 245 4.0 10.0 0.00 0.09 0.09 87 1005.6
20260505150404 52 230 5.0 8.0 0.00 0.09 0.09 88 1005.4
20260505140638 52 239 7.0 10.0 0.00 0.09 0.09 88 1005.1
20260505130231 51 0 0.0 2.0 0.00 0.09 0.09 88 1004.7
20260505124230 52 250 8.0 11.0 0.00 0.09 0.09 85 1004.7
20260505115731 52 199 2.0 5.0 0.00 0.09 0.09 88 1004.4
20260505115231 52 199 2.0 5.0 0.00 0.09 0.09 88 1004.4
20260505114230 52 198 4.0 7.0 0.00 0.09 0.09 87 1004.4
20260505112730 52 161 6.0 9.0 0.00 0.09 0.09 86 1004.3
20260505112230 52 154 6.0 10.0 0.00 0.09 0.09 87 1004.2
20260505110231 52 161 5.0 8.0 0.01 0.09 0.09 89 1004.3
20260505090055 53 62 3.0 6.0 0.04 0.04 0.04 87 1005.1
20260505084555 54 66 4.0 8.0 0.01 0.01 0.01 86 1005.1
20260505083055 54 98 3.0 8.0 0.00 0.00 0.00 85 1005.1
20260505082555 54 109 5.0 8.0 0.00 0.00 0.00 85 1005.1
20260505081555 54 122 4.0 8.0 0.00 0.00 0.00 85 1005.0
20260505080055 54 151 5.0 7.0 0.00 0.00 0.00 85 1005.0
20260505075556 54 172 4.0 6.0 0.00 0.00 0.00 84 1005.0
20260505074055 54 186 3.0 7.0 0.00 0.00 0.00 86 1004.9
20260505073555 54 191 2.0 7.0 0.00 0.00 0.00 86 1004.9
20260505073055 54 143 3.0 7.0 0.00 0.00 0.00 85 1004.9
20260505072054 54 136 5.0 8.0 0.00 0.00 0.00 86 1004.8
20260505071054 54 129 5.0 10.0 0.00 0.00 0.00 85 1004.8
20260505065554 54 138 8.0 11.0 0.00 0.00 0.00 85 1004.7
20260505064054 54 128 6.0 9.0 0.00 0.00 0.00 85 1004.7
20260505063554 54 118 5.0 9.0 0.00 0.00 0.00 85 1004.7
20260505062554 54 138 8.0 10.0 0.00 0.00 0.00 84 1004.7
20260505061052 55 143 8.0 10.0 0.00 0.00 0.00 82 1004.6
20260505060552 55 141 8.0 10.0 0.00 0.00 0.00 81 1004.6
20260505055551 55 148 7.0 10.0 0.00 0.00 0.00 81 1004.7
20260505054551 55 173 5.0 9.0 0.00 0.00 0.00 79 1004.7
20260505052845 56 157 7.0 10.0 0.00 0.00 0.00 75 1004.7
20260505052345 57 163 7.0 10.0 0.00 0.00 0.00 73 1004.8
20260505051846 57 172 4.0 7.0 0.00 0.00 0.00 75 1004.7
20260505050845 57 162 6.0 8.0 0.00 0.00 0.00 75 1004.8
20260505040844 58 188 4.0 9.0 0.00 0.00 0.00 71 1004.3
20260505034843 57 159 6.0 10.0 0.00 0.00 0.00 74 1004.0
20260505033843 57 151 6.0 9.0 0.00 0.00 0.00 74 1003.9
20260505030930 57 147 6.0 9.0 0.00 0.00 0.00 79 1003.6